Wind_Speed
40 43 44 42 40 40 40 41 43 43 43 43 43 43 44 45 46 46 46 47 47 47 47 48 47 48 48 47 46 45 43 43 42 40 39 38 37 36 36 35 34 34 33 33
37 40 40 40 39 38 39 40 40 41 42 41 42 43 44 46 46 46 46 46 46 47 47 48 47 47 48 48 47 45 44 43 42 41 40 39 38 38 37 36 35 35 35 35
35 36 39 40 39 37 38 38 39 39 40 40 40 42 44 44 46 47 46 45 45 46 47 47 47 47 47 48 47 46 45 44 43 42 41 40 40 39 38 37 36 36 36 36
32 34 36 37 37 36 36 37 37 38 38 38 38 39 39 41 44 45 45 45 44 44 46 48 48 48 47 47 47 46 46 45 44 43 42 41 40 39 38 38 38 38 38 38
29 31 33 35 35 35 34 34 35 35 36 36 36 36 35 38 40 41 41 42 43 44 45 46 47 48 48 48 48 47 47 46 44 43 42 41 41 40 40 40 40 40 40 39
27 29 30 32 33 33 32 32 32 32 33 34 34 34 33 34 35 37 39 40 42 44 45 45 46 47 48 48 48 48 47 46 45 45 44 43 42 41 41 41 41 41 41 41
24 27 28 30 31 32 32 32 31 31 32 32 31 33 31 30 32 35 38 39 41 42 44 45 46 47 47 48 48 48 48 47 47 46 46 45 44 43 43 42 42 42 42 43
21 23 25 29 30 30 30 31 31 30 30 28 28 30 29 28 30 33 35 38 40 41 42 43 44 45 47 47 47 47 47 47 47 46 46 45 45 45 44 44 44 44 44 44
19 21 23 26 28 29 29 30 29 28 28 28 28 27 26 26 28 31 33 35 37 39 40 42 42 43 44 45 46 47 47 47 47 47 47 46 46 45 45 45 45 45 45 45
18 20 22 24 26 28 29 28 29 28 27 27 27 25 23 23 25 28 31 33 36 37 38 40 41 41 42 43 44 44 45 45 45 46 46 46 46 46 46 46 46 46 45 45
14 18 20 22 24 24 26 27 28 27 27 27 27 25 23 22 23 26 29 32 34 36 37 38 39 40 40 41 42 42 43 43 43 44 44 45 45 45 45 45 45 45 45 45
12 15 16 19 22 22 24 25 26 26 26 26 26 25 23 22 22 24 26 30 33 35 36 37 37 38 39 39 40 41 42 42 42 42 43 43 44 44 44 44 43 43 43 43
10 13 15 17 20 22 23 23 25 25 25 25 25 24 23 22 22 22 24 27 30 33 34 35 36 37 37 38 39 40 41 41 41 41 41 42 42 42 42 42 42 42 42 42
11 13 14 15 17 19 21 22 24 25 24 23 22 21 21 22 22 22 23 25 27 29 32 33 34 36 36 37 37 38 39 40 40 40 40 40 40 40 41 41 41 41 41 41
12 13 14 15 15 17 20 21 23 23 23 23 21 21 20 21 22 22 23 24 25 26 28 30 32 33 34 34 35 35 36 37 37 38 38 38 38 38 38 38 39 39 39 38
12 13 14 15 16 17 19 20 21 21 22 22 21 20 20 21 21 21 22 23 24 25 26 27 28 29 30 31 32 32 33 33 34 35 35 35 36 36 36 36 36 36 36 35
13 13 14 14 15 17 18 19 20 19 20 21 20 19 21 20 20 21 22 22 23 24 24 25 25 26 26 27 28 28 29 30 30 31 32 32 33 33 33 34 34 33 33 33
14 14 14 15 15 16 15 17 18 18 19 19 19 19 19 19 19 19 20 20 21 22 22 22 23 23 24 24 25 25 26 27 27 28 29 30 31 31 32 32 32 31 31 31
14 14 14 14 15 15 15 16 16 17 17 17 17 18 18 19 19 18 19 19 20 20 20 21 21 21 22 22 23 24 24 25 26 27 28 28 29 29 30 30 30 30 29 29
15 15 15 14 14 14 14 16 16 16 16 16 16 17 17 17 17 17 18 18 19 19 20 20 20 20 21 22 22 23 24 24 25 26 27 27 27 28 28 28 28 27 27 27
15 15 15 15 15 14 14 15 16 17 16 15 16 16 16 16 16 17 17 18 18 19 19 19 19 20 20 21 22 22 23 24 24 25 25 25 26 26 26 26 26 26 26 26
16 16 15 15 15 14 14 15 16 16 16 16 16 16 16 16 17 17 18 18 18 18 19 19 20 20 20 21 22 22 23 23 23 24 24 24 24 24 24 25 25 25 25 26
16 16 16 16 15 15 15 15 16 16 17 17 17 17 18 18 18 18 19 19 19 19 20 20 20 21 21 22 22 22 22 22 22 23 23 23 23 23 24 24 24 24 25 25
16 16 16 16 16 16 16 16 17 17 17 17 17 18 18 18 19 20 20 20 21 21 21 21 21 21 21 21 21 22 22 22 22 22 22 23 23 23 23 23 24 24 24 25
18 17 17 16 17 17 17 17 17 18 18 18 18 18 18 19 19 19 20 20 21 22 22 22 21 21 21 20 21 21 21 21 21 21 21 21 22 22 23 23 23 24 24 25
18 18 18 18 18 18 18 18 19 19 19 19 19 19 20 20 19 19 20 20 21 21 22 22 22 21 21 21 20 20 20 21 21 21 21 22 22 23 23 24 24 24 25 25
Wind_Direction
196 199 200 202 206 209 212 215 217 218 220 222 223 223 223 225 226 227 228 229 229 229 229 229 229 229 230 231 232 233 235 238 240 242 245 248 251 254 258 260 264 267 269 270
194 197 197 199 203 206 209 212 214 216 219 222 223 223 222 224 226 227 228 229 229 229 230 230 230 230 231 231 232 234 237 239 241 244 246 248 251 254 258 261 265 267 268 270
191 193 195 197 200 203 207 209 212 215 218 222 224 225 224 225 227 227 228 228 229 229 230 231 231 231 232 232 233 235 237 240 243 245 248 250 252 255 259 262 264 266 268 271
185 189 193 195 198 202 206 208 211 215 219 222 225 227 226 228 229 229 229 230 230 231 231 232 232 232 233 233 234 236 238 240 243 246 249 251 253 256 259 261 263 266 269 271
183 186 190 194 197 200 203 206 210 215 220 223 225 228 226 229 231 231 231 231 231 231 231 232 232 233 234 235 235 237 238 240 243 246 249 251 254 256 259 261 264 266 269 271
183 186 189 191 194 197 200 203 207 212 217 222 224 228 226 229 230 229 229 230 230 230 231 232 232 233 234 235 236 238 239 241 243 245 248 251 254 256 259 261 263 266 269 271
180 185 189 191 194 195 197 201 205 211 217 220 222 228 227 228 228 227 227 228 229 230 231 231 233 234 234 235 237 238 240 242 244 246 248 250 253 255 258 260 263 265 268 270
178 184 188 191 193 194 197 202 207 214 219 221 223 227 226 227 228 227 226 227 228 230 231 232 232 233 234 235 237 238 240 242 243 246 248 250 252 255 257 260 263 265 267 270
182 184 186 189 192 196 200 203 208 216 222 225 225 228 228 229 229 228 227 228 229 230 231 232 232 233 234 235 237 238 240 242 244 246 248 250 252 254 257 259 262 264 267 269
187 191 190 192 195 198 203 206 209 215 222 226 226 227 229 229 230 228 227 227 228 229 231 232 233 234 235 235 236 238 240 242 244 246 248 250 253 255 257 259 262 264 267 269
185 194 195 197 199 202 206 209 212 218 223 228 230 230 230 231 231 229 228 227 227 228 230 232 233 234 235 236 237 238 240 241 244 246 249 251 253 255 258 260 263 265 267 268
188 197 199 202 205 208 210 213 216 219 225 230 233 234 234 235 233 232 231 229 229 229 231 233 234 234 235 236 238 239 240 242 244 246 248 251 253 256 259 261 263 265 267 268
198 205 205 207 209 212 213 215 218 222 228 232 235 237 237 239 237 235 234 232 231 231 232 234 235 235 236 238 239 240 241 242 244 247 249 251 253 255 258 260 262 265 267 269
208 209 212 216 215 215 216 217 219 224 230 235 237 238 237 237 237 238 236 235 234 233 234 235 236 237 238 240 240 241 243 243 245 247 249 251 253 255 258 260 262 264 267 269
214 215 218 219 219 217 217 218 222 228 233 236 237 237 235 235 235 237 237 236 235 235 235 236 237 238 239 240 242 243 244 245 246 247 249 252 253 255 258 260 262 264 267 269
225 223 223 223 223 223 221 223 229 232 235 236 237 238 239 236 235 235 236 237 236 236 236 237 238 238 239 241 243 244 245 246 247 248 250 252 253 255 258 260 263 265 266 268
231 228 227 227 228 228 226 226 231 235 235 236 237 236 237 238 237 236 236 236 235 236 238 239 239 239 240 241 242 244 245 246 247 248 249 252 254 256 258 260 262 264 265 267
231 230 231 230 231 233 230 228 232 234 235 238 237 237 239 239 239 237 236 235 235 236 236 238 238 239 240 240 241 243 244 245 247 248 250 253 254 256 258 259 261 263 265 267
231 231 231 232 234 234 234 232 234 235 235 236 237 238 240 240 239 236 235 235 235 235 236 238 239 240 241 241 242 244 245 246 248 250 252 254 255 257 258 259 261 263 265 267
231 231 233 235 236 236 235 235 235 236 236 235 235 236 238 238 236 236 235 235 235 236 237 239 240 240 241 242 244 245 247 249 250 252 253 255 256 257 258 259 261 263 265 268
231 233 236 238 239 236 234 235 235 236 236 234 234 234 235 236 235 235 235 236 237 238 240 241 241 243 244 245 246 248 250 251 252 253 253 254 256 256 258 260 261 263 265 268
233 234 236 237 239 237 235 237 237 237 236 237 237 237 237 237 237 236 237 237 239 240 242 243 245 247 248 248 250 251 252 253 253 253 253 254 255 257 259 260 262 263 266 269
235 236 238 239 240 239 239 239 238 238 238 238 239 240 240 239 239 238 238 238 240 241 243 246 248 249 251 252 251 252 253 253 254 254 254 255 256 259 260 261 262 265 267 270
237 237 239 240 241 241 241 241 240 240 241 241 241 241 240 241 241 241 242 242 242 244 246 248 250 251 252 252 252 252 253 253 254 255 256 257 257 258 260 262 264 267 269 272
237 238 239 241 243 243 243 242 242 242 243 244 244 243 242 243 244 244 244 246 247 247 249 249 250 251 252 253 253 252 253 253 254 256 257 257 257 259 261 264 266 268 271 274
237 238 239 241 243 243 243 244 246 247 247 247 247 246 245 245 246 247 247 248 249 249 250 251 252 252 252 253 253 254 254 254 255 257 257 258 259 261 262 265 267 270 273 275
Height
5603 5613 5623 5634 5643 5652 5660 5667 5675 5682 5689 5695 5701 5709 5716 5720 5725 5732 5739 5745 5751 5757 5763 5768 5773 5779 5784 5789 5794 5799 5803 5806 5810 5813 5816 5819 5821 5822 5824 5824 5825 5826 5826 5826
5601 5610 5621 5629 5637 5645 5653 5661 5668 5676 5682 5688 5694 5701 5707 5712 5718 5725 5731 5737 5744 5749 5755 5760 5766 5771 5776 5781 5786 5791 5795 5798 5802 5805 5808 5810 5813 5814 5816 5817 5818 5818 5818 5818
5599 5609 5616 5624 5632 5640 5648 5656 5664 5671 5676 5681 5688 5694 5700 5706 5711 5717 5723 5730 5736 5742 5747 5752 5758 5763 5768 5773 5778 5783 5787 5790 5793 5797 5799 5802 5804 5807 5809 5810 5810 5810 5810 5810
5598 5605 5613 5621 5629 5637 5644 5652 5659 5665 5670 5676 5682 5688 5695 5700 5704 5710 5718 5723 5729 5734 5739 5744 5750 5755 5759 5764 5769 5774 5778 5781 5785 5788 5791 5793 5796 5798 5800 5801 5801 5802 5802 5802
5598 5604 5611 5619 5627 5634 5642 5648 5655 5661 5666 5672 5676 5682 5689 5692 5698 5705 5711 5716 5721 5726 5731 5736 5741 5746 5751 5755 5760 5764 5768 5772 5776 5779 5782 5784 5787 5789 5791 5791 5792 5793 5793 5793
5599 5604 5610 5617 5624 5631 5638 5645 5651 5655 5660 5666 5672 5676 5683 5688 5693 5699 5703 5708 5713 5717 5722 5727 5732 5737 5742 5746 5751 5755 5759 5763 5766 5770 5773 5776 5778 5780 5781 5782 5783 5784 5784 5784
5599 5604 5610 5615 5621 5628 5634 5641 5647 5651 5655 5661 5666 5670 5678 5683 5686 5690 5695 5699 5704 5708 5713 5718 5723 5728 5732 5737 5741 5746 5750 5754 5757 5760 5763 5766 5769 5770 5772 5773 5774 5774 5774 5774
5600 5605 5610 5615 5620 5626 5632 5638 5645 5649 5652 5657 5661 5665 5673 5676 5679 5683 5687 5691 5696 5700 5705 5709 5714 5718 5723 5727 5732 5736 5740 5744 5747 5751 5754 5756 5759 5761 5762 5763 5764 5764 5764 5764
5602 5606 5610 5614 5620 5625 5629 5635 5641 5645 5649 5653 5656 5662 5667 5670 5673 5676 5680 5684 5688 5693 5697 5701 5705 5709 5713 5718 5722 5727 5731 5734 5738 5741 5744 5746 5749 5750 5752 5753 5754 5754 5754 5754
5604 5607 5610 5614 5618 5623 5628 5633 5637 5641 5645 5648 5653 5657 5661 5664 5667 5670 5674 5677 5681 5685 5689 5692 5696 5700 5704 5708 5713 5717 5721 5724 5728 5731 5734 5736 5738 5740 5741 5742 5743 5743 5743 5743
5605 5608 5611 5614 5617 5622 5626 5630 5634 5638 5641 5645 5648 5654 5656 5659 5661 5664 5667 5670 5674 5677 5681 5684 5688 5692 5696 5700 5704 5707 5711 5715 5718 5721 5724 5726 5728 5730 5731 5732 5733 5733 5733 5732
5606 5608 5610 5613 5616 5619 5623 5627 5631 5635 5638 5640 5644 5651 5651 5653 5656 5658 5661 5664 5667 5670 5673 5677 5680 5684 5688 5691 5695 5698 5702 5705 5708 5711 5714 5716 5718 5719 5721 5721 5722 5722 5722 5722
5606 5608 5610 5612 5616 5618 5620 5624 5627 5630 5634 5636 5639 5646 5646 5648 5650 5652 5655 5657 5660 5663 5666 5669 5673 5676 5680 5683 5686 5689 5693 5696 5699 5702 5704 5706 5708 5709 5710 5711 5712 5712 5712 5711
5606 5608 5610 5612 5613 5615 5618 5621 5624 5627 5629 5632 5635 5639 5641 5643 5645 5647 5649 5651 5654 5656 5659 5662 5665 5669 5672 5675 5678 5681 5684 5687 5689 5692 5694 5696 5698 5699 5700 5701 5702 5702 5702 5701
5605 5606 5607 5609 5611 5613 5615 5618 5620 5623 5626 5628 5631 5633 5636 5637 5639 5641 5643 5645 5648 5650 5653 5655 5658 5661 5664 5667 5670 5672 5675 5678 5680 5683 5685 5687 5688 5690 5691 5691 5692 5692 5692 5692
5602 5604 5605 5607 5608 5610 5612 5614 5617 5619 5621 5623 5626 5629 5630 5632 5634 5636 5638 5640 5642 5644 5647 5649 5652 5654 5657 5659 5662 5664 5667 5669 5672 5674 5676 5678 5679 5680 5681 5682 5682 5683 5683 5682
5600 5602 5603 5605 5605 5607 5610 5612 5613 5615 5617 5619 5621 5625 5624 5626 5628 5630 5632 5634 5636 5638 5641 5643 5645 5648 5650 5652 5654 5657 5659 5661 5663 5666 5667 5669 5671 5672 5673 5673 5673 5674 5674 5674
5598 5599 5600 5601 5603 5604 5609 5608 5609 5611 5613 5615 5617 5618 5620 5622 5623 5625 5627 5629 5631 5633 5635 5637 5639 5641 5644 5646 5648 5650 5652 5654 5656 5658 5659 5661 5662 5663 5664 5664 5665 5665 5665 5665
5594 5596 5597 5598 5599 5601 5604 5604 5605 5607 5609 5610 5612 5614 5615 5617 5618 5621 5622 5624 5626 5628 5630 5632 5634 5636 5638 5640 5642 5644 5646 5647 5649 5650 5652 5653 5654 5655 5656 5656 5657 5657 5657 5657
5591 5592 5594 5595 5596 5598 5601 5601 5601 5604 5605 5607 5608 5609 5611 5612 5615 5617 5618 5619 5621 5623 5625 5627 5629 5631 5632 5634 5636 5637 5639 5640 5642 5643 5644 5645 5646 5647 5648 5648 5649 5649 5649 5649
5587 5588 5590 5591 5592 5594 5597 5597 5599 5601 5603 5603 5604 5605 5607 5609 5611 5612 5614 5615 5617 5619 5620 5622 5624 5625 5627 5628 5630 5631 5632 5634 5635 5636 5637 5638 5639 5639 5640 5641 5641 5641 5641 5641
5583 5585 5586 5587 5589 5593 5592 5593 5595 5597 5598 5599 5600 5602 5603 5605 5606 5608 5609 5611 5613 5614 5616 5617 5619 5620 5621 5623 5624 5625 5626 5627 5628 5629 5630 5631 5632 5632 5633 5633 5633 5634 5634 5633
5579 5581 5582 5584 5587 5587 5588 5589 5591 5592 5593 5595 5596 5598 5599 5600 5602 5603 5605 5606 5608 5609 5611 5612 5613 5614 5615 5617 5618 5619 5620 5621 5622 5622 5623 5624 5625 5625 5626 5626 5626 5626 5626 5626
5575 5576 5578 5580 5581 5582 5584 5585 5586 5588 5589 5590 5592 5593 5595 5596 5597 5599 5600 5601 5603 5604 5605 5606 5608 5608 5609 5610 5611 5612 5613 5614 5615 5616 5617 5617 5618 5618 5619 5619 5619 5619 5619 5618
5570 5571 5573 5575 5576 5578 5579 5580 5582 5583 5584 5586 5587 5588 5589 5591 5592 5593 5594 5596 5597 5598 5599 5600 5601 5602 5603 5604 5605 5606 5607 5608 5609 5609 5610 5611 5611 5612 5612 5612 5612 5612 5611 5611
5565 5567 5569 5570 5572 5573 5574 5575 5577 5578 5579 5580 5582 5583 5584 5585 5587 5588 5589 5590 5591 5592 5593 5594 5595 5596 5597 5598 5599 5600 5601 5602 5602 5603 5604 5604 5605 5605 5605 5605 5605 5604 5604 5603